Pagrindinis puslapis
METAR-TAF:

METAR-TAF

Oro uostai :

Avenger Field

Sweetwater, Teksasas, Jungtinės Amerikos Valstijos

platuma: 32-28-02N, ilguma: 100-27-59W, Aukštis: 725 m

Dabartinis oras

Ataskaita buvo paskelbta 19 minutes, ne 17:35 UTC
Vėjas 4 kt iš Šiaurės
Temperatūra 27°C
Drėgmė 42%
Slėgis 1022 hPa
Matomumas: 16.1 km
Giedras dangus

METAR: KSWW 031735Z AUTO 36004KT 10SM CLR 27/13 A3017 RMK AO2 T02740131

Laikas: 12:54 (17:54 UTC)


TAF: trūkstamas

Orai ataskaitas ir orų prognozės (METAR, TAF).

turimą stotys yra geltonos ir raudonos taškus žemėlapyje.

Perkelti pele per norėdami pamatyti stoties vardą.

Tada spustelėkite, norėdami matyti oro stebėjimo ir prognozės.

Norėdami pakeisti žemėlapį: spustelėkite ant žalios mygtukų su juodo kryžiaus žemyn,; žalią mygtuką su brūkšneliu, jei norite nutolinti; arba žalių rodyklių gretimoms žemėlapius.


METAR-TAF: